Regional Weather Roundup
Issued by NWS Wilmington, NC

Home | Current Version | Previous Version | Text Only | Print | Product List | Glossary On
Versions: 1 2 3 4 5 6 7 8 9 10 11 12 13 14 15 16 17 18 19 20 21 22 23 24 25 26 27 28 29 30 31 32 33 34 35 36 37 38 39 40 41 42 43 44 45 46 47 48 49 50
000
ASUS42 KILM 310610
RWRILM
RWRILM
REGIONAL HOURLY WEATHER ROUNDUP
NATIONAL WEATHER SERVICE WILMINGTON NC
100 AM EST SAT JAN 31 2015

NOTE: "FAIR" INDICATES FEW OR NO CLOUDS BELOW 12,000 FEET WITH NO
SIGNIFICANT WEATHER AND/OR OBSTRUCTIONS TO VISIBILITY.

...............WFO WILMINGTON COUNTY WARNING AREA...............

......COASTAL NC AND SC COUNTIES......

CITY           SKY/WX    TMP DP  RH WIND       PRES   REMARKS
WILMINGTON     CLEAR     34  13  41 N12       30.29R WCI  25
SOUTHPORT      CLEAR     36  11  36 N8        30.29R WCI  29
N MYRTLE BEACH CLEAR     36  15  42 N6        30.30R WCI  31
MYRTLE BEACH   CLEAR     39  10  30 N13       30.32R WCI  32

......INLAND NC AND SC COUNTIES.......

CITY           SKY/WX    TMP DP  RH WIND       PRES   REMARKS
LUMBERTON      PTCLDY    34  10  37 N9        30.32S WCI  27
ELIZABETHTOWN  PTCLDY    33   9  37 N3        30.31S
WHITEVILLE     CLEAR     34  12  39 CALM      30.30F
FLORENCE       CLEAR     34  14  43 N9        30.32S WCI  27
DARLINGTON     CLEAR     32  14  47 N6        30.33F WCI  26

....................REST OF NORTH CAROLINA......................

.........EASTERN NC.........

CITY           SKY/WX    TMP DP  RH WIND       PRES   REMARKS
CAPE HATTERAS  CLEAR     34  17  50 NW16G31   30.21R WCI  24
JACKSONVILLE   CLEAR     32   9  37 NW7       30.30R WCI  26
MOREHEAD CITY  CLEAR     33  14  45 N18G26    30.26R WCI  22
KENANSVILLE    CLEAR     31  11  43 NW7       30.31S WCI  24
NEW BERN       CLEAR     34  11  38 NW12G21   30.29R WCI  25
ELIZABETH CITY CLEAR     29  10  45 NW14      30.25R WCI  18

.........CENTRAL NC.........

CITY           SKY/WX    TMP DP  RH WIND       PRES   REMARKS
RALEIGH DURHAM PTCLDY    28   8  43 CALM      30.30F
ROCKY MOUNT    CLEAR     29  11  47 NW7       30.30S WCI  22
ROANOKE RAPIDS NOT AVBL
FAYETTEVILLE   CLEAR     32   8  36 N9        30.31F WCI  24
HOFFMAN        PTCLDY    29  10  45 N6        30.33F WCI  23

.........WESTERN NC.........

CITY           SKY/WX    TMP DP  RH WIND       PRES   REMARKS
CHARLOTTE      CLEAR     25  11  55 N5        30.30F WCI  19
GREENSBORO     CLEAR     25   8  48 CALM      30.28F
HICKORY        NOT AVBL
BOONE          NOT AVBL
ASHEVILLE      NOT AVBL

.....................REST OF SOUTH CAROLINA.....................

.........EASTERN SC.........

CITY           SKY/WX    TMP DP  RH WIND       PRES   REMARKS
CHARLESTON     CLEAR     40  19  43 N10       30.30S WCI  33
BEAUFORT MCAS  CLEAR     38  26  62 N5        30.30S WCI  34
HILTON HEAD    CLEAR     45  28  53 N7        30.31S

.........CENTRAL SC.........

CITY           SKY/WX    TMP DP  RH WIND       PRES   REMARKS
COLUMBIA       CLEAR     31  20  63 CALM      30.31S
ORANGEBURG     CLEAR     34  24  67 CALM      30.31R
SUMTER SHAW    CLEAR     31  17  56 NE9       30.30S WCI  22

.........WESTERN SC.........

CITY           SKY/WX    TMP DP  RH WIND       PRES   REMARKS
GREENVILLE     NOT AVBL
ROCK HILL      CLEAR     26  18  71 CALM      30.30F
ANDERSON       CLEAR     28  18  66 CALM      30.31S
CLEMSON        NOT AVBL
GREENWOOD      CLEAR     33  14  45 N3        30.32S


...................COASTAL AND OFFSHORE REPORTS..................

................LOCAL PIERS AND NC RESERVE................


STATION/POSITION TIME  SKY/WX   TEMP    WIND        PRES    VSBY
                                AIR SEA DIR/SP/G
                 (UTC)          (F)     (DEG/KT/KT) (MB)    (MI)
JOHNY MRCER PIER 0600            36 53  330/ 10/ 16 1024.7S
NC RESRV MASNBRO 0500            37     220/  2     1025.0S
OCEAN CREST PIER 0500               52                N/A
SPRINGMAID  PIER 0600            39 49  340/  7/ 11 1025.7F


................COASTAL AND OFFSHORE BUOYS................


STATION/POSITION TIME  SKY/WX   TEMP    WIND        PRES    VSBY
                                AIR SEA DIR/SP/G
                 (UTC)          (F)     (DEG/KT/KT) (MB)    (MI)
DIMNDSHOAL 41025 0600            39 64  330/ 29/ 35 1021.3S
WVE H/P(F/S)=  8/ 6 WND WVE H/P(F/S)=  8/ 6

CAPE LOOKOUT     0500            37     340/ 22/ 25 1023.6R
ONSLOW BAY 41036 NOT AVBL
5 WRITEBCH 41038 0500            40 51  360/ 19/ 25 1025.0R
MASONBORO  41110 0600               52                N/A
WVE H/P(F/S)=  3/ 3 WND WVE H/P(F/S)=  3/ 3

WILM HARBR 41108 0600               53                N/A
WVE H/P(F/S)=  4/ 4 WND WVE H/P(F/S)=  3/ 4

27WRITEBCH 41037 NOT AVBL
FRYING PAN 41013 0600            44 62  340/ 25/ 31 1024.8R
WVE H/P(F/S)=  7/ 6 WND WVE H/P(F/S)=  7/ 6

SUNST NRSH 41024 0500            41     350/ 14/ 17   N/A
CAPRS NRSH 41029 0500            45      30/ 17/ 21   N/A
EDISTO     41004 0600            51 68   10/ 23/ 27 1023.6F
WVE H/P(F/S)=  6/ 6 WND WVE H/P(F/S)=  5/ 6 SWL H/P/D(F/S/D)=  2/10



..........OFFSHORE BUOYS BEYOND 100 NM OFFSHORE...........
.....IN A TRIANGLE---HAT TO BERMUDA TO BAHAMAS TO HAT.....


STATION/POSITION TIME  SKY/WX   TEMP    WIND        PRES    VSBY
                                AIR SEA DIR/SP/G
                 (UTC)          (F)     (DEG/KT/KT) (MB)    (MI)
150E HAT   41001 NOT AVBL
W BERMUDA  41048 0524            60 71  300/ 27/ 33 1012.2R
WVE H/P(F/S)= 11/ 8 WND WVE H/P(F/S)= 11/ 8

ATLANTIC S 41049 0548            70 74  240/ 14/ 17 1015.6F
WVE H/P(F/S)=  8/ 9 WND WVE H/P(F/S)=  3/ 6 SWL H/P/D(F/S/D)=  7/ 10/ 9

E BAHAMAS  41046 0549            73 78  330/ 12/ 14 1017.2F
WVE H/P(F/S)=  6/ 9 WND WVE H/P(F/S)=  2/ 5 SWL H/P/D(F/S/D)=  7/350/ 9

NE BAHAMAS 41047 0524            67 75  280/ 19/ 23 1016.0F
WVE H/P(F/S)=  6/ 6 WND WVE H/P(F/S)=  5/ 6 SWL H/P/D(F/S/D)=  2/ 10/ 9

120E CANVRL41010 0600            64 73  350/ 19/ 27 1022.1F
WVE H/P(F/S)=  7/ 7 WND WVE H/P(F/S)=  7/ 7


END


USA.gov is the U.S. government's official web portal to all federal, state and local government web resources and services.